User: anonymous   Login
Location: Caltech
(34.1382°N, 118.1253°W)
Time: 13:13:16
(UTC-08:00)
Language:

Iridium 14 - Orbit

View from above orbital plane
View from above orbital plane
View from above satellite
View from above satellite

Ground track
Ground track

The orbit data is extracted from the following two-line orbital elements,

1 25777U 99032A   16039.58304995  .00000071  00000-0  18270-4 0  9993
2 25777  86.3928  70.7210 0002252  97.9612  15.0052 14.34218819883786
Epoch (UTC): 08 February 2016 13:59:35
Eccentricity: 0.0002252
inclination: 86.3928°
perigee height: 776 km
apogee height: 779 km
right ascension of ascending node: 70.7210°
argument of perigee: 97.9612°
revolutions per day: 14.34218819
mean anomaly at epoch: 15.0052°
orbit number at epoch: 88378

The dashed part of the orbit path shows where the satellite is in the earth's shadow,  

DLR